User: anonymous   Login
Location: Oberwangen
(47.4286°N, 8.9679°E)
Time: 21:15:12
(UTC+00:00)
Language:

CZ-4B DEB - Orbit

View from above orbital plane
View from above orbital plane
View from above satellite
View from above satellite

Ground track
Ground track

The orbit data is extracted from the following two-line orbital elements,

1 46483U 20067F   22021.21048919  .00003651  00000-0  30182-3 0  9993
2 46483  97.9340 114.0075 0097011 212.5057 147.0167 14.95972291 71886
Epoch (UTC): 21 January 2022 05:03:06
Eccentricity: 0.0097011
inclination: 97.9340°
perigee height: 512 km
apogee height: 647 km
right ascension of ascending node: 114.0075°
argument of perigee: 212.5057°
revolutions per day: 14.95972291
mean anomaly at epoch: 147.0167°
orbit number at epoch: 7188

The dashed part of the orbit path shows where the satellite is in the earth's shadow,  

DLR